Weather in Beloozerskij

Russia / Moscow Oblast     55°27′34″N   38°26′20″E
temp.,
°C
wind,
m/s
gust,
m/s
humid.,
%
clouds,
%
prec.,
mm/h
press.,
hPa
HPBL,
m
24 october, sun
sun2400:00+3wsw5118149 0.0 1009532
03:00+4wsw5993100 0.0 1010752
06:00+4wsw4891100 0.1 1010874
09:00+3w598789 0.3 1011727
12:00+3wnw51091100 0.6 1013811
15:00+2nw61193100 1.1 1015879
18:00+2nnw6127776 0.1 10181091
21:00+1nnw6127918 0.1 1021811
25 october, mon
mon2500:000nw511865 0.0 1023530
03:00−1nw49885 0.0 1026357
06:00−2nw389112 0.0 1028246
09:000nw35828 0.0 1029293
12:00+3w3460100 0.0 1029812
15:00+4wsw4656100 0.0 1028926
18:00+1sw41070100 0.0 1028312
21:00+1sw4127532 0.0 1027387
26 october, tue
tue2600:000sw513772 0.0 1026365
03:000wsw5138256 0.0 1025379
06:000wsw51384100 0.0 1024392
09:00+1wsw51379100 0.0 1024439
12:00+5wsw61262100 0.0 1023542
15:00+6wsw5136196 0.0 1022648
18:00+5sw51467100 0.0 1022490
21:00+4sw51470100 0.0 1021478
27 october, wed
wed2700:00+3sw5137560 0.0 1021418
03:00+2sw412765 0.0 1021372
06:00+1sw412785 0.0 1020340
09:00+3sw514710 0.0 1019454
12:00+7sw6125592 0.0 1018657
15:00+7sw61257100 0.0 1016789
18:00+6sw51267100 0.0 1016620
21:00+5w6980100 0.1 1016897
28 october, thu
thu2800:00+5w4990100 0.9 1017492
03:00+5w4990100 1.0 1018394
06:00+5wsw3881100 0.0 1019266
09:00+6w377785 0.0 1020326
12:00+8w3660100 0.0 10211218
15:00+8sw3767100 0.0 1020476
18:00+7ssw3876100 0.0 1020355
21:00+6s3793100 1.9 1020294